| time (UTC) | temp C | wind direction | speed KPH | gust KPH | rain 1hr cm | rain 24hr cm | rain mn cm | humidity % | barometer mb |
| 20260506161503 | 20 | 200 | 3.2 | 17.7 | 0.00 | 0.00 | 0.00 | 68 | 1009.1 |
| 20260506160312 | 21 | 217 | 8.0 | 22.5 | 0.00 | 0.00 | 0.00 | 62 | 1009.4 |
| 20260506160100 | 21 | 243 | 4.8 | 22.5 | 0.00 | 0.00 | 0.00 | 62 | 1009.3 |
| 20260506154521 | 21 | 221 | 11.3 | 30.6 | 0.00 | 0.00 | 0.00 | 59 | 1009.5 |
| 20260506153030 | 21 | 175 | 4.8 | 22.5 | 0.00 | 0.00 | 0.00 | 61 | 1009.2 |
| 20260506151543 | 21 | 231 | 6.4 | 20.9 | 0.00 | 0.00 | 0.00 | 61 | 1009.4 |
| 20260506150043 | 21 | 179 | 9.7 | 29.0 | 0.00 | 0.00 | 0.00 | 60 | 1009.4 |
| 20260506144603 | 22 | 210 | 6.4 | 25.7 | 0.00 | 0.00 | 0.00 | 60 | 1009.5 |
| 20260506143025 | 21 | 258 | 6.4 | 17.7 | 0.00 | 0.00 | 0.00 | 61 | 1009.4 |
| 20260506141519 | 21 | 241 | 6.4 | 22.5 | 0.00 | 0.00 | 0.00 | 62 | 1009.3 |
| 20260506140310 | 21 | 181 | 9.7 | 22.5 | 0.00 | 0.00 | 0.00 | 61 | 1009.5 |
| 20260506140023 | 21 | 316 | 6.4 | 22.5 | 0.00 | 0.00 | 0.00 | 62 | 1009.4 |
| 20260506134540 | 21 | 204 | 8.0 | 20.9 | 0.00 | 0.00 | 0.00 | 63 | 1009.4 |
| 20260506133051 | 20 | 235 | 8.0 | 24.1 | 0.00 | 0.00 | 0.00 | 64 | 1009.6 |
| 20260506131511 | 20 | 165 | 11.3 | 24.1 | 0.00 | 0.00 | 0.00 | 64 | 1009.7 |
| 20260506130012 | 20 | 1 | 3.2 | 17.7 | 0.00 | 0.00 | 0.00 | 65 | 1009.5 |
| 20260506124526 | 20 | 221 | 6.4 | 19.3 | 0.00 | 0.00 | 0.00 | 66 | 1009.5 |
| 20260506123045 | 18 | 161 | 3.2 | 14.5 | 0.00 | 0.00 | 0.00 | 68 | 1009.6 |
| 20260506121559 | 18 | 125 | 4.8 | 16.1 | 0.00 | 0.00 | 0.00 | 68 | 1009.7 |
| 20260506120323 | 19 | 91 | 4.8 | 12.9 | 0.00 | 0.00 | 0.00 | 68 | 1009.8 |
| 20260506120044 | 19 | 110 | 6.4 | 12.9 | 0.00 | 0.00 | 0.00 | 68 | 1009.8 |
| 20260506114552 | 18 | 211 | 6.4 | 19.3 | 0.00 | 0.00 | 0.00 | 69 | 1009.8 |
| 20260506113057 | 18 | 111 | 8.0 | 16.1 | 0.00 | 0.00 | 0.00 | 71 | 1010.0 |
| 20260506111517 | 17 | 90 | 3.2 | 12.9 | 0.00 | 0.00 | 0.00 | 72 | 1010.0 |
| 20260506110028 | 17 | 185 | 3.2 | 14.5 | 0.00 | 0.00 | 0.00 | 73 | 1009.8 |
| 20260506104559 | 17 | 156 | 4.8 | 19.3 | 0.00 | 0.00 | 0.00 | 73 | 1009.7 |
| 20260506103010 | 17 | 155 | 4.8 | 20.9 | 0.00 | 0.00 | 0.00 | 74 | 1009.7 |
| 20260506101515 | 17 | 105 | 3.2 | 14.5 | 0.00 | 0.00 | 0.00 | 74 | 1009.6 |
| 20260506100300 | 17 | 191 | 4.8 | 12.9 | 0.00 | 0.00 | 0.00 | 75 | 1009.6 |
| 20260506100015 | 17 | 165 | 3.2 | 12.9 | 0.00 | 0.00 | 0.00 | 75 | 1009.6 |
| 20260506094527 | 17 | 232 | 4.8 | 17.7 | 0.00 | 0.00 | 0.00 | 74 | 1009.4 |
| 20260506093042 | 17 | 155 | 8.0 | 17.7 | 0.00 | 0.00 | 0.00 | 74 | 1009.5 |
| 20260506091548 | 17 | 167 | 4.8 | 14.5 | 0.00 | 0.00 | 0.00 | 74 | 1009.5 |
| 20260506090056 | 17 | 134 | 3.2 | 14.5 | 0.00 | 0.00 | 0.00 | 74 | 1009.6 |
| 20260506084511 | 17 | 193 | 3.2 | 16.1 | 0.00 | 0.00 | 0.00 | 74 | 1009.7 |
| 20260506083025 | 17 | 243 | 4.8 | 17.7 | 0.00 | 0.00 | 0.00 | 74 | 1009.7 |
| 20260506081524 | 17 | 209 | 4.8 | 12.9 | 0.00 | 0.00 | 0.00 | 74 | 1010.0 |
| 20260506080309 | 17 | 195 | 3.2 | 14.5 | 0.00 | 0.00 | 0.00 | 74 | 1009.9 |
| 20260506073058 | 17 | 172 | 4.8 | 14.5 | 0.00 | 0.00 | 0.00 | 73 | 1009.9 |
| 20260506071511 | 18 | 100 | 3.2 | 16.1 | 0.00 | 0.00 | 0.00 | 72 | 1010.0 |
| 20260506061545 | 18 | 203 | 3.2 | 12.9 | 0.00 | 0.00 | 0.00 | 69 | 1009.9 |
| 20260506060318 | 19 | 216 | 4.8 | 20.9 | 0.00 | 0.00 | 0.00 | 68 | 1010.0 |
| 20260506044529 | 19 | 247 | 4.8 | 17.7 | 0.00 | 0.00 | 0.00 | 66 | 1010.5 |
| 20260506043040 | 19 | 204 | 3.2 | 17.7 | 0.00 | 0.00 | 0.00 | 65 | 1010.5 |
| 20260506041607 | 19 | 161 | 4.8 | 17.7 | 0.00 | 0.00 | 0.00 | 64 | 1010.4 |
| 20260506040309 | 20 | 191 | 8.0 | 16.1 | 0.00 | 0.00 | 0.00 | 63 | 1010.5 |
| 20260506040020 | 20 | 284 | 3.2 | 16.1 | 0.00 | 0.00 | 0.00 | 63 | 1010.4 |
| 20260506034532 | 20 | 148 | 4.8 | 20.9 | 0.00 | 0.00 | 0.00 | 62 | 1010.5 |
| 20260506033030 | 20 | 202 | 4.8 | 19.3 | 0.00 | 0.00 | 0.00 | 60 | 1010.5 |
| 20260506031536 | 20 | 218 | 8.0 | 24.1 | 0.00 | 0.00 | 0.00 | 59 | 1010.3 |
| 20260506030050 | 20 | 231 | 4.8 | 22.5 | 0.00 | 0.00 | 0.00 | 58 | 1010.3 |
| 20260506024600 | 20 | 154 | 8.0 | 19.3 | 0.00 | 0.00 | 0.00 | 58 | 1010.3 |
| 20260506023019 | 20 | 195 | 6.4 | 17.7 | 0.00 | 0.00 | 0.00 | 57 | 1010.4 |
| 20260506021532 | 20 | 108 | 6.4 | 19.3 | 0.00 | 0.00 | 0.00 | 57 | 1010.3 |
| 20260506020309 | 21 | 113 | 8.0 | 19.3 | 0.00 | 0.00 | 0.00 | 57 | 1010.3 |
| 20260506020039 | 21 | 161 | 6.4 | 22.5 | 0.00 | 0.00 | 0.00 | 57 | 1010.2 |
| 20260506014541 | 21 | 169 | 8.0 | 25.7 | 0.00 | 0.00 | 0.00 | 56 | 1010.2 |
| 20260506013106 | 21 | 178 | 3.2 | 17.7 | 0.00 | 0.00 | 0.00 | 56 | 1010.0 |
| 20260506011510 | 21 | 234 | 4.8 | 17.7 | 0.00 | 0.00 | 0.00 | 54 | 1009.9 |
| 20260506010015 | 22 | 229 | 8.0 | 17.7 | 0.00 | 0.00 | 0.00 | 53 | 1009.7 |
| 20260506004523 | 22 | 103 | 9.7 | 22.5 | 0.00 | 0.00 | 0.00 | 50 | 1009.5 |
| 20260506003055 | 24 | 160 | 8.0 | 22.5 | 0.00 | 0.00 | 0.00 | 41 | 1009.2 |
| 20260506001502 | 25 | 174 | 4.8 | 19.3 | 0.00 | 0.00 | 0.00 | 40 | 1009.0 |
| 20260506000315 | 25 | 210 | 8.0 | 24.1 | 0.00 | 0.00 | 0.00 | 40 | 1009.0 |
| 20260506000058 | 25 | 236 | 4.8 | 30.6 | 0.00 | 0.00 | 0.00 | 40 | 1008.9 |
| 20260505234519 | 25 | 120 | 8.0 | 20.9 | 0.00 | 0.00 | 0.00 | 38 | 1008.8 |
| 20260505233037 | 26 | 188 | 6.4 | 24.1 | 0.00 | 0.00 | 0.00 | 36 | 1008.7 |
| 20260505231603 | 26 | 146 | 4.8 | 22.5 | 0.00 | 0.00 | 0.00 | 34 | 1008.3 |
| 20260505230055 | 26 | 222 | 11.3 | 27.4 | 0.00 | 0.00 | 0.00 | 31 | 1008.2 |
| 20260505224559 | 27 | 156 | 11.3 | 22.5 | 0.00 | 0.00 | 0.00 | 29 | 1008.1 |
| 20260505223016 | 27 | 217 | 9.7 | 29.0 | 0.00 | 0.00 | 0.00 | 27 | 1008.0 |
| 20260505221526 | 27 | 96 | 11.3 | 29.0 | 0.00 | 0.00 | 0.00 | 30 | 1007.9 |
| 20260505220330 | 28 | 216 | 8.0 | 30.6 | 0.00 | 0.00 | 0.00 | 31 | 1007.7 |
| 20260505220022 | 28 | 146 | 11.3 | 30.6 | 0.00 | 0.00 | 0.00 | 31 | 1007.6 |
| 20260505214614 | 28 | 230 | 9.7 | 27.4 | 0.00 | 0.00 | 0.00 | 32 | 1007.6 |
| 20260505213009 | 28 | 218 | 8.0 | 27.4 | 0.00 | 0.00 | 0.00 | 31 | 1007.5 |
| 20260505211521 | 28 | 144 | 11.3 | 30.6 | 0.00 | 0.00 | 0.00 | 31 | 1007.5 |
| 20260505210042 | 28 | 212 | 11.3 | 30.6 | 0.00 | 0.00 | 0.00 | 30 | 1007.5 |
| 20260505204549 | 29 | 224 | 9.7 | 27.4 | 0.00 | 0.00 | 0.00 | 30 | 1007.3 |
| 20260505203004 | 28 | 231 | 9.7 | 24.1 | 0.00 | 0.00 | 0.00 | 30 | 1007.5 |
| 20260505201529 | 29 | 225 | 9.7 | 25.7 | 0.00 | 0.00 | 0.00 | 29 | 1007.6 |
| 20260505200321 | 30 | 221 | 9.7 | 27.4 | 0.00 | 0.00 | 0.00 | 28 | 1007.7 |
| 20260505200045 | 29 | 85 | 6.4 | 27.4 | 0.00 | 0.00 | 0.00 | 30 | 1007.6 |
| 20260505194557 | 29 | 197 | 9.7 | 41.8 | 0.00 | 0.00 | 0.00 | 30 | 1007.7 |
| 20260505193013 | 29 | 217 | 8.0 | 24.1 | 0.00 | 0.00 | 0.00 | 31 | 1007.9 |
| 20260505191517 | 29 | 148 | 8.0 | 20.9 | 0.00 | 0.00 | 0.00 | 31 | 1008.2 |
| 20260505190029 | 29 | 188 | 11.3 | 24.1 | 0.00 | 0.00 | 0.00 | 32 | 1008.5 |
| 20260505184557 | 28 | 174 | 8.0 | 30.6 | 0.00 | 0.00 | 0.00 | 34 | 1008.7 |
| 20260505183003 | 28 | 214 | 9.7 | 24.1 | 0.00 | 0.00 | 0.00 | 35 | 1008.8 |
| 20260505181525 | 28 | 224 | 9.7 | 22.5 | 0.00 | 0.00 | 0.00 | 35 | 1009.0 |
| 20260505180320 | 28 | 205 | 9.7 | 24.1 | 0.00 | 0.00 | 0.00 | 36 | 1009.1 |
| 20260505180035 | 28 | 223 | 8.0 | 24.1 | 0.00 | 0.00 | 0.00 | 35 | 1009.1 |
| 20260505174545 | 28 | 164 | 9.7 | 20.9 | 0.00 | 0.00 | 0.00 | 36 | 1009.2 |
| 20260505173054 | 28 | 240 | 8.0 | 20.9 | 0.00 | 0.00 | 0.00 | 36 | 1009.5 |
| 20260505171506 | 27 | 167 | 6.4 | 22.5 | 0.00 | 0.00 | 0.00 | 38 | 1009.5 |
| 20260505170021 | 27 | 178 | 6.4 | 19.3 | 0.00 | 0.00 | 0.00 | 39 | 1009.7 |
| 20260505164540 | 27 | 200 | 9.7 | 20.9 | 0.00 | 0.00 | 0.00 | 39 | 1009.9 |
| 20260505163048 | 27 | 166 | 6.4 | 19.3 | 0.00 | 0.00 | 0.00 | 40 | 1010.0 |